Regional Weather Roundup
Issued by NWS

Home | Current Version | Previous Version | Graphics & Text | Print | Product List | Glossary On
Versions: 1 2 3 4 5 6 7 8 9 10 11 12 13 14 15 16 17 18 19 20 21 22 23 24 25 26 27 28 29 30 31 32 33 34 35 36 37 38 39 40 41 42 43 44 45 46 47 48 49 50
000
ASUS43 KIND 042159
RWRIN

WEATHER ROUNDUP FOR INDIANA
NATIONAL WEATHER SERVICE INDIANAPOLIS IN
600 PM EDT SAT JUL 04 2015

NOTE: "FAIR" INDICATES FEW OR NO CLOUDS BELOW 12,000 FEET WITH NO
SIGNIFICANT WEATHER AND/OR OBSTRUCTIONS TO VISIBILITY.

* - STATION DOES NOT REPORT WEATHER SUCH AS PRECIPITATION OR FOG.

+ - STATION NOT QUALITY CONTROLLED BY THE NATIONAL WEATHER SERVICE.
    USE DATA WITH CAUTION...ESPECIALLY DEWPOINT AND RELATIVE
    HUMIDITY OBSERVATIONS.

INZ001>003-010>013-019-020-042300-
NORTHWEST INDIANA

CITY           SKY/WX    TMP DP  RH WIND       PRES   REMARKS
GARY /AIRPORT/ MOSUNNY  N/A N/A N/A NE9       30.00S
RENSSELAER +   SUNNY     79  59  50 W5        30.00F

$$

LMZ046-743>745-042300-
SOUTHERN LAKE MICHIGAN

STATION/POSITION TIME  TEMP    WIND        PRES    WAVE
                       AIR SEA DIR/SP/G            HT
                 (UTC) (F)     (DEG/KT/KT) (MB)    (FT)
BURNS HARBOR     2100   71      70/ 10/ 11 1016.6F
MICHIGAN CITY    2100   67      30/  9/  9   N/A
5NW MICH CITY    2100   68 66   70/  6/  6   N/A     0

$$

INZ004-005-014>016-021>024-042300-
NORTH CENTRAL INDIANA

CITY           SKY/WX    TMP DP  RH WIND       PRES   REMARKS
ELKHART        MOSUNNY   81  57  44 W6        30.02R
GOSHEN         MOSUNNY   77  60  55 SW5       30.01S
SOUTH BEND     MOSUNNY   79  59  50 NW6       30.02R

$$

INZ006>009-017-018-025>027-042300-
NORTHEAST INDIANA

CITY           SKY/WX    TMP DP  RH WIND       PRES   REMARKS
ANGOLA *+        N/A     81  75  83 W5        30.02S
FORT WAYNE     PTSUNNY   79  53  40 VRB6      30.02S

$$

INZ028-029-035-036-043>045-051>053-042300-
WEST CENTRAL INDIANA

CITY           SKY/WX    TMP DP  RH WIND       PRES   REMARKS
CRAWFORDSVL +  SUNNY     76  51  40 NW5       30.00F
GREENCASTLE +  PTSUNNY   77  55  47 N5        30.01S
LAFAYETTE      SUNNY     79  56  45 SW5       29.99F
TERRE HAUTE    MOSUNNY   80  62  54 N5        29.99F

$$

INZ030>032-037>040-046>048-054>057-064-065-042300-
CENTRAL INDIANA

CITY           SKY/WX    TMP DP  RH WIND       PRES   REMARKS
COLUMBUS       MOSUNNY   79  61  53 NE6       29.99S
GREENWOOD *+   MOSUNNY   79  55  44 W3        30.00F
INDIANAPOLIS   MOSUNNY   80  56  43 MISG      29.98F
-EAGLE CREEK   SUNNY     80  57  45 N6        29.99F
KOKOMO *+      MOSUNNY   79  59  50 N7        30.00F
MT COMFORT *+  SUNNY     81  43  26 N5        30.00F
SHELBYVILLE    SUNNY     82  62  50 N5        29.99F

$$

INZ033-034-041-042-049-050-058-059-042300-
EAST CENTRAL INDIANA

CITY           SKY/WX    TMP DP  RH WIND       PRES   REMARKS
MUNCIE         SUNNY     79  56  45 W8        30.01F

$$

INZ060-061-067>069-081>083-085>088-042300-
SOUTHWEST INDIANA

CITY           SKY/WX    TMP DP  RH WIND       PRES   REMARKS
EVANSVILLE     PTSUNNY   82  66  58 N6        29.97S
HUNTINGBURG *+ PTSUNNY   81  64  57 N3        29.97F

$$

INZ062-063-066-070>080-084-089>092-042300-
SOUTH CENTRAL AND SOUTHEAST INDIANA

CITY           SKY/WX    TMP DP  RH WIND       PRES   REMARKS
BLOOMINGTON    SUNNY     82  63  52 NE7       29.99F
MADISON *+     MOSUNNY   79  61  53 CALM      30.01R
SEYMOUR +      MOSUNNY   81  64  57 E6        29.98F

$$



USA.gov is the U.S. government's official web portal to all federal, state and local government web resources and services.